Date String (YYYY-MM-DD hh:mm:ss) UTC,Instrument flags,absolute air pressure of the measurement (hPa),sample flow rate (lpm),inlet stack bypass flow (lpm),air temperature of the measurement (°C),ambient temperature measured by the external sensor (°C),aerosol sample conditioner tube jacket temperature (°C),OPC LED temperature (°C),internal box temperature (°C),relative humidity of the measurement (%),span deviation,mass concentration of particles derived from Lorenz-Mie calculation of OPC scattering (μg/m³),mass concentration of particles derived from Lorenz-Mie calculation of OPC scattering (μg/m³),mass concentration of particles derived from Lorenz-Mie calculation of OPC scattering (μg/m³)
DateTimeUTC,F1_M11,P_M11,Q1_M11,Q2_M11,T1_M11,T2_M11,T3_M11,T4_M11,T5_M11,U1_M11,ZSPAN_M11,X2_M11,X0_M11,X1_M11
2024-03-19 18:00:00,SystemResetWarning,0829.7,5.01,000.00,021.3,020.8,000.0,029.5,023.1,15.5,0000.0,0002.69,0007.40,0001.35
2024-03-19 18:01:00,SystemResetWarning,0829.7,5.01,000.00,021.3,020.8,000.0,029.6,023.1,16.4,0000.0,0002.64,0007.32,0001.36
2024-03-19 18:02:00,SystemResetWarning,0829.6,5.00,000.00,021.3,020.9,000.0,029.6,023.1,15.9,0000.0,0002.62,0007.51,0001.37
2024-03-19 18:03:00,SystemResetWarning,0829.6,4.99,000.00,021.4,020.9,000.0,029.6,023.1,14.5,0000.0,0002.59,0007.42,0001.36
2024-03-19 18:04:00,SystemResetWarning,0829.6,5.00,000.00,021.4,020.9,000.0,029.6,023.1,14.0,0000.0,0002.53,0007.35,0001.34
2024-03-19 18:05:00,SystemResetWarning,0829.6,5.00,000.00,021.4,020.9,000.0,029.6,023.1,14.5,0000.0,0002.50,0007.32,0001.33
2024-03-19 18:06:00,SystemResetWarning,0829.6,5.00,000.00,021.4,020.9,000.0,029.6,023.2,14.9,0000.0,0002.52,0007.71,0001.33
2024-03-19 18:07:00,SystemResetWarning,0829.6,5.00,000.00,021.4,020.9,000.0,029.6,023.2,14.1,0000.0,0002.56,0007.96,0001.34
2024-03-19 18:08:00,SystemResetWarning,0829.6,5.01,000.00,021.4,021.0,000.0,029.7,023.2,14.3,0000.0,0002.53,0007.88,0001.34
2024-03-19 18:09:00,SystemResetWarning,0829.6,5.00,000.00,021.4,021.0,000.0,029.7,023.2,14.6,0000.0,0002.47,0006.90,0001.33
2024-03-19 18:10:00,SystemResetWarning,0829.5,5.00,000.00,021.5,021.0,000.0,029.7,023.2,14.7,0000.0,0002.37,0006.55,0001.32
2024-03-19 18:11:00,SystemResetWarning,0829.5,5.00,000.00,021.5,021.0,000.0,029.7,023.2,15.3,0000.0,0002.37,0006.59,0001.31
2024-03-19 18:12:00,SystemResetWarning,0829.5,5.00,000.00,021.5,021.0,000.0,029.7,023.2,14.5,0000.0,0002.37,0006.31,0001.30
2024-03-19 18:13:00,SystemResetWarning,0829.5,5.00,000.00,021.5,021.0,000.0,029.7,023.3,15.6,0000.0,0002.33,0005.73,0001.31
2024-03-19 18:14:00,SystemResetWarning,0829.5,4.99,000.00,021.5,021.0,000.0,029.7,023.3,14.8,0000.0,0002.25,0005.57,0001.32
2024-03-19 18:15:00,SystemResetWarning,0829.5,5.00,000.00,021.5,021.1,000.0,029.8,023.3,15.4,0000.0,0002.26,0005.49,0001.34
2024-03-19 18:16:00,SystemResetWarning,0829.5,4.99,000.00,021.5,021.1,000.0,029.8,023.3,15.7,0000.0,0002.33,0006.21,0001.36
2024-03-19 18:17:00,SystemResetWarning,0829.5,5.01,000.00,021.5,021.1,000.0,029.8,023.3,14.8,0000.0,0002.35,0006.51,0001.36
2024-03-19 18:18:00,SystemResetWarning,0829.4,5.01,000.00,021.6,021.1,000.0,029.8,023.3,14.8,0000.0,0002.35,0006.17,0001.36
2024-03-19 18:19:00,SystemResetWarning,0829.4,5.00,000.00,021.6,021.1,000.0,029.8,023.3,15.1,0000.0,0002.42,0007.30,0001.36
2024-03-19 18:20:00,SystemResetWarning,0829.4,4.98,000.00,021.6,021.1,000.0,029.8,023.4,14.9,0000.0,0002.45,0007.60,0001.38
2024-03-19 18:21:00,SystemResetWarning,0829.3,4.99,000.00,021.6,021.1,000.0,029.9,023.4,15.9,0000.0,0002.51,0008.16,0001.39
2024-03-19 18:22:00,SystemResetWarning,0829.3,5.01,000.00,021.6,021.2,000.0,029.9,023.4,15.4,0000.0,0002.51,0008.43,0001.39
2024-03-19 18:23:00,SystemResetWarning,0829.3,5.00,000.00,021.6,021.2,000.0,029.9,023.4,15.0,0000.0,0002.56,0008.49,0001.41
2024-03-19 18:24:00,SystemResetWarning,0829.4,5.01,000.00,021.7,021.2,000.0,029.9,023.4,15.6,0000.0,0002.63,0008.53,0001.44
2024-03-19 18:25:00,SystemResetWarning,0829.3,5.00,000.00,021.7,021.2,000.0,029.9,023.4,16.5,0000.0,0002.70,0008.78,0001.47
2024-03-19 18:26:00,SystemResetWarning,0829.3,4.99,000.00,021.7,021.2,000.0,029.9,023.5,17.1,0000.0,0002.71,0008.94,0001.49
2024-03-19 18:27:00,SystemResetWarning,0829.3,4.99,000.00,021.7,021.3,000.0,029.9,023.5,16.3,0000.0,0002.72,0008.95,0001.52
2024-03-19 18:28:00,SystemResetWarning,0829.3,5.00,000.00,021.7,021.3,000.0,029.9,023.5,15.6,0000.0,0002.73,0008.71,0001.53
2024-03-19 18:29:00,SystemResetWarning,0829.4,5.01,000.00,021.7,021.3,000.0,030.0,023.5,15.4,0000.0,0002.72,0008.80,0001.55
2024-03-19 18:30:00,SystemResetWarning,0829.3,5.00,000.00,021.8,021.3,000.0,030.0,023.5,15.3,0000.0,0002.72,0008.40,0001.57
2024-03-19 18:31:00,SystemResetWarning,0829.4,4.99,000.00,021.8,021.3,000.0,030.0,023.5,15.1,0000.0,0002.76,0008.18,0001.59
2024-03-19 18:32:00,SystemResetWarning,0829.3,4.99,000.00,021.8,021.3,000.0,030.0,023.6,15.5,0000.0,0002.75,0007.69,0001.60
2024-03-19 18:33:00,SystemResetWarning,0829.4,5.01,000.00,021.8,021.3,000.0,030.0,023.6,15.2,0000.0,0002.71,0007.31,0001.60
2024-03-19 18:34:00,SystemResetWarning,0829.4,5.00,000.00,021.8,021.4,000.0,030.0,023.6,15.9,0000.0,0002.73,0007.35,0001.59
2024-03-19 18:35:00,SystemResetWarning,0829.4,5.00,000.00,021.8,021.4,000.0,030.0,023.6,15.2,0000.0,0002.73,0007.35,0001.57
2024-03-19 18:36:00,SystemResetWarning,0829.4,5.00,000.00,021.8,021.4,000.0,030.1,023.6,14.7,0000.0,0002.75,0007.17,0001.54
2024-03-19 18:37:00,SystemResetWarning,0829.3,5.01,000.00,021.9,021.4,000.0,030.1,023.6,15.3,0000.0,0002.70,0006.85,0001.51
2024-03-19 18:38:00,SystemResetWarning,0829.3,5.00,000.00,021.9,021.4,000.0,030.1,023.7,15.0,0000.0,0002.65,0006.17,0001.49
2024-03-19 18:39:00,SystemResetWarning,0829.2,4.98,000.00,021.9,021.4,000.0,030.1,023.7,14.9,0000.0,0002.60,0005.86,0001.48
2024-03-19 18:40:00,SystemResetWarning,0829.2,5.01,000.00,021.9,021.5,000.0,030.1,023.7,15.5,0000.0,0002.57,0005.54,0001.47
2024-03-19 18:41:00,SystemResetWarning,0829.2,5.01,000.00,021.9,021.5,000.0,030.1,023.7,16.5,0000.0,0002.55,0005.30,0001.45
2024-03-19 18:42:00,SystemResetWarning,0829.2,4.99,000.00,021.9,021.5,000.0,030.2,023.7,15.0,0000.0,0002.57,0005.26,0001.44
2024-03-19 18:43:00,SystemResetWarning,0829.1,4.99,000.00,022.0,021.5,000.0,030.2,023.8,16.2,0000.0,0002.55,0005.28,0001.43
2024-03-19 18:44:00,SystemResetWarning,0829.2,5.00,000.00,022.0,021.5,000.0,030.2,023.8,16.4,0000.0,0002.56,0006.44,0001.43
2024-03-19 18:45:00,SystemResetWarning,0829.1,5.01,000.00,022.0,021.6,000.0,030.2,023.8,15.7,0000.0,0002.53,0006.35,0001.43
2024-03-19 18:46:00,SystemResetWarning,0829.1,5.01,000.00,022.0,021.6,000.0,030.2,023.8,15.7,0000.0,0002.51,0006.35,0001.44
2024-03-19 18:47:00,SystemResetWarning,0829.1,5.01,000.00,022.0,021.6,000.0,030.2,023.8,15.0,0000.0,0002.49,0006.33,0001.44
2024-03-19 18:48:00,SystemResetWarning,0829.1,4.99,000.00,022.0,021.6,000.0,030.3,023.8,15.7,0000.0,0002.53,0006.40,0001.46
2024-03-19 18:49:00,SystemResetWarning,0829.1,4.98,000.00,022.1,021.6,000.0,030.3,023.9,15.7,0000.0,0002.57,0006.55,0001.48
2024-03-19 18:50:00,SystemResetWarning,0829.1,5.00,000.00,022.1,021.6,000.0,030.3,023.9,15.0,0000.0,0002.66,0007.35,0001.50
2024-03-19 18:51:00,SystemResetWarning,0829.1,5.01,000.00,022.1,021.6,000.0,030.3,023.9,14.6,0000.0,0002.70,0007.36,0001.51
2024-03-19 18:52:00,SystemResetWarning,0829.1,5.01,000.00,022.1,021.6,000.0,030.3,023.9,15.0,0000.0,0002.68,0007.29,0001.52
2024-03-19 18:53:00,SystemResetWarning,0829.1,5.00,000.00,022.1,021.7,000.0,030.3,023.9,15.3,0000.0,0002.68,0007.31,0001.53
2024-03-19 18:54:00,SystemResetWarning,0829.1,5.00,000.00,022.1,021.7,000.0,030.4,023.9,15.3,0000.0,0002.66,0007.50,0001.54
2024-03-19 18:55:00,SystemResetWarning,0829.1,5.00,000.00,022.2,021.7,000.0,030.4,023.9,14.5,0000.0,0002.63,0006.53,0001.54
2024-03-19 18:56:00,SystemResetWarning,0829.1,5.00,000.00,022.2,021.7,000.0,030.4,024.0,14.7,0000.0,0002.61,0006.52,0001.54
2024-03-19 18:57:00,SystemResetWarning,0829.0,4.99,000.00,022.2,021.7,000.0,030.4,024.0,15.1,0000.0,0002.59,0006.67,0001.52
2024-03-19 18:58:00,SystemResetWarning,0829.0,5.00,000.00,022.2,021.7,000.0,030.4,024.0,15.5,0000.0,0002.50,0006.46,0001.49
2024-03-19 18:59:00,SystemResetWarning,0829.0,5.00,000.00,022.2,021.7,000.0,030.4,024.0,15.1,0000.0,0002.48,0007.06,0001.49
